SAUDISAT 2

Satellite information

Favourite Embed

Satellite Type and Status

PAYLOADIN ORBIT

Key statistics

Satellite SAUDISAT 2 at a glance.

Uptime

7678

Days in orbit

Revolutions

≈ 14.6

Per day

Orbit

SSO

Sun Synchronous Orbit

Inclination

98.5

Latest

Satellite identification and parameters

Extended collection of information and parameters for SAUDISAT 2.

Object identification

Identified? True

Debris? False

Object name: SAUDISAT 2

International designator: 2004-025F

Object number (NORAD): 28371

Object ID (CCSDS): 28371

Country: SAUDI ARABIA (SAUD)

Current information (Y/N): Y

RCS size: MEDIUM

Orbital parameters

Period: 98.878 minutes

Inclination: 98.5261 deg

SMA: 7083.148 km

Apoapsis: 721.734 km

Periapsis: 688.293 km

RAAN: 174.456 deg

Eccentricy: 0.0023606

Argument of periapsis: 277.9005 deg

Mean anomaly: 81.9513 deg

Mean motion: 14.56341577 rev/day

Mean motion (dot): 0.00000216 rev/day2

B* drag term: 0.000059727 1/REarth

Two-line elements (TLE)

Creation date: July 6, 2025, 10:36 p.m.

Reference frame: TEME

Reference center: EARTH

Epoch: July 6, 2025, 9:30 p.m. UTC

TLE line 0: 0 SAUDISAT 2

TLE line 1: 1 28371U 04025F 25187.89610878 .00000216 00000-0 59727-4 0 9995

TLE line 2: 2 28371 98.5261 174.4560 0023606 277.9005 81.9513 14.56341577115522

Live tracking on map

Real-time ground track for satellite SAUDISAT 2.

In-orbit conjunctions

There are no conjunctions computed for SAUDISAT 2, at the moment. Check back to stay up to date, as we update our databases every day.

Go to all conjunctions

Associated space launch

AprizeSat, is a constellation of small Low-Earth-Orbit satellites (64 satellites planned) to achieve a global communication system of data transmission and fixed and mobile asset tracking and monitoring (GMPCS).

SAUDISAT 2 was lifted into orbit during the mission ‘Dnepr | Aprizesat-2’, on board a Dnepr space rocket.

The launch took place on June 29, 2004, 6:30 a.m. from 109/95.

For more information about the launch, click the button.

Launch to space Dnepr | Aprizesat-2
Dnepr | Aprizesat-2

Agency: N/A

Status: Launch Successful

Launch date: June 29, 2004, 6:30 a.m. UTC

Rocket: Dnepr

Launch pad: 109/95

Location: Baikonur Cosmodrome, Republic of Kazakhstan

...

Latest news about this satellite

There are no fresh news available about this satellite. Check back as we update our databases every day.


Newsletter sign-up

Weekly statistics, charts and insights to help you stay on top of the space industry.